sat.trackr.live / text

‹ back to catalog

YAOGAN-32 A

NORAD 43642 · 2018-077A

PAYLOAD ACTIVE UNKNOWN

§ Identity

Operator
Country
PRC
Launch date
2018-10-09
Launch site
JSC
Launch vehicle
Mass (kg)
RCS (m²)

External: N2YO · Heavens-Above · Gunter

§ Orbital elements

Epoch: 2026-05-25T05:08:24.975744Z

Period
98.42 min
Inclination
98.1492°
Eccentricity
0.0001128
Mean motion
14.63138920 rev/d
Perigee alt
682.3 km
Apogee alt
683.9 km
Semi-major
7,061.2 km
B*
1.3290e-4
RAAN
174.0346°
Arg perigee
98.5071°
Mean anomaly
261.6259°
Rev number
40,648

§ Raw data

YAOGAN-32 A1 43642U 18077A   26145.21417796  .00000636  00000+0  13290-3 0  99992 43642  98.1492 174.0346 0001128  98.5071 261.6259 14.63138920406481

JSON: /api/v1/satellites/43642 · /tle

For live sub-satellite position, see the globe view (requires WebGL).

§ Visibility from observer

Set your observer location to see the next 7 days of passes ≥ 10°. The values pass through the URL so the page stays shareable.

No JS? Fill the form by hand. The geolocation button needs JavaScript.